DW5450 Weather Reports


Display with metric or nautical units.
time (UTC)temp
F
wind
direction
speed
MPH
gust
MPH
rain 1hr
in
rain 24hr
in
rain mn
in
humidity
%
barometer
mb
20220810010045 87 136 1.0 3.0 0.00 0.00 0.00 74 1010.2
20220810004601 87 151 1.0 3.0 0.00 0.00 0.00 72 1009.9
20220810003051 87 164 0.0 5.0 0.00 0.00 0.00 71 1009.9
20220810001554 87 117 2.0 8.0 0.00 0.00 0.00 68 1009.8
20220810000055 87 132 2.0 6.0 0.00 0.00 0.00 67 1009.7
20220809234542 87 172 2.0 5.0 0.00 0.00 0.00 68 1009.7
20220809233041 87 110 2.0 4.0 0.00 0.00 0.00 69 1009.5
20220809231540 87 111 1.0 5.0 0.00 0.00 0.00 69 1009.3
20220809230044 87 116 2.0 5.0 0.00 0.00 0.00 70 1009.1
20220809224543 88 114 2.0 6.0 0.00 0.00 0.00 70 1009.2
20220809223035 88 55 1.0 2.0 0.00 0.00 0.00 67 1009.5
20220809221536 88 5 0.0 2.0 0.00 0.00 0.00 67 1009.8
20220809220034 87 5 0.0 3.0 0.00 0.00 0.00 68 1010.1
20220809214531 87 16 0.0 4.0 0.00 0.00 0.00 70 1010.2
20220809213027 86 327 1.0 3.0 0.00 0.00 0.00 68 1010.7
20220809211530 86 309 2.0 8.0 0.00 0.00 0.00 67 1011.0
20220809210025 86 300 2.0 6.0 0.00 0.00 0.00 70 1011.7
20220809204525 86 257 0.0 2.0 0.00 0.00 0.00 75 1012.5
20220809203023 85 207 0.0 5.0 0.00 0.00 0.00 71 1013.0
20220809201523 85 203 1.0 6.0 0.00 0.00 0.00 76 1013.1
20220809200023 86 113 3.0 8.0 0.00 0.00 0.00 76 1013.7
20220809194522 87 157 4.0 8.0 0.00 0.00 0.00 74 1013.9
20220809193027 87 155 2.0 11.0 0.00 0.00 0.00 73 1014.1
20220809191532 88 156 4.0 12.0 0.00 0.00 0.00 72 1014.4
20220809190038 89 157 5.0 12.0 0.00 0.00 0.00 69 1014.0
20220809184522 89 127 7.0 14.0 0.00 0.00 0.00 69 1014.1
20220809183029 89 109 5.0 14.0 0.00 0.00 0.00 68 1013.7
20220809181521 89 160 4.0 11.0 0.00 0.00 0.00 67 1014.0
20220809180018 90 158 6.0 12.0 0.00 0.00 0.00 66 1014.3
20220809174522 90 162 4.0 10.0 0.00 0.00 0.00 66 1014.2
20220809173014 90 117 3.0 9.0 0.00 0.00 0.00 66 1013.9
20220809171516 90 140 3.0 8.0 0.00 0.00 0.00 67 1013.8
20220809170016 91 109 2.0 8.0 0.00 0.00 0.00 68 1013.7
20220809164511 91 90 2.0 5.0 0.00 0.00 0.00 70 1013.4
20220809163007 89 132 2.0 6.0 0.00 0.00 0.00 69 1013.4
20220809161502 88 115 1.0 4.0 0.00 0.00 0.00 71 1013.5
20220809160108 86 132 0.0 2.0 0.00 0.00 0.00 77 1013.5
20220809154602 84 101 1.0 3.0 0.00 0.00 0.00 81 1013.6
20220809153055 81 238 0.0 3.0 0.00 0.00 0.00 83 1013.5
20220809151608 81 209 1.0 2.0 0.00 0.00 0.00 85 1013.4
20220809150048 81 207 0.0 1.0 0.00 0.00 0.00 85 1013.4
20220809144548 81 207 0.0 1.0 0.00 0.00 0.00 84 1013.4
20220809143049 81 207 0.0 1.0 0.00 0.00 0.00 87 1013.2
20220809141549 79 206 0.0 1.0 0.00 0.00 0.00 88 1012.9
20220809140045 78 206 0.0 1.0 0.00 0.00 0.00 88 1012.6
20220809134546 78 206 0.0 2.0 0.00 0.00 0.00 88 1012.4
20220809133044 77 156 0.0 2.0 0.00 0.00 0.00 88 1012.3
20220809131544 77 156 0.0 1.0 0.00 0.00 0.00 87 1012.1
20220809130043 77 156 0.0 1.0 0.00 0.00 0.00 87 1011.8
20220809124600 78 156 0.0 1.0 0.00 0.00 0.00 87 1011.6
20220809123045 78 156 0.0 1.0 0.00 0.00 0.00 87 1011.6
20220809121541 78 155 0.0 2.0 0.00 0.00 0.00 87 1011.4
20220809120051 78 155 0.0 1.0 0.00 0.00 0.00 86 1011.3
20220809114540 78 156 0.0 1.0 0.00 0.00 0.00 86 1011.3
20220809113039 78 156 0.0 1.0 0.00 0.00 0.00 85 1011.4
20220809111539 78 155 0.0 2.0 0.00 0.00 0.00 85 1011.3
20220809110035 78 155 0.0 3.0 0.00 0.00 0.00 85 1011.1
20220809104534 79 156 1.0 3.0 0.00 0.00 0.00 84 1011.0
20220809103032 79 161 2.0 3.0 0.00 0.00 0.00 84 1011.0
20220809101531 79 243 0.0 2.0 0.00 0.00 0.00 84 1011.0
20220809100030 79 243 1.0 3.0 0.00 0.00 0.00 85 1011.1
20220809094528 79 171 2.0 4.0 0.00 0.00 0.00 85 1011.3
20220809093027 79 157 1.0 3.0 0.00 0.00 0.00 84 1011.5
20220809091525 80 159 1.0 3.0 0.00 0.00 0.00 84 1011.2
20220809090027 81 167 1.0 3.0 0.00 0.00 0.00 83 1011.3
20220809084523 81 167 1.0 3.0 0.00 0.00 0.00 82 1011.4
20220809083021 81 226 1.0 3.0 0.00 0.00 0.00 83 1011.5
20220809081520 81 194 0.0 3.0 0.00 0.00 0.00 83 1011.4
20220809080023 81 192 1.0 2.0 0.00 0.00 0.00 83 1011.6
20220809074516 81 188 0.0 2.0 0.00 0.00 0.00 83 1012.0
20220809073013 81 188 0.0 1.0 0.00 0.00 0.00 83 1012.4
20220809071513 81 188 0.0 3.0 0.00 0.00 0.00 83 1012.7
20220809070008 81 185 1.0 3.0 0.00 0.00 0.00 83 1012.9
20220809064508 81 159 1.0 2.0 0.00 0.00 0.00 83 1013.1
20220809063006 81 159 1.0 3.0 0.00 0.00 0.00 83 1013.2
20220809061506 82 159 0.0 2.0 0.00 0.00 0.00 82 1013.1
20220809060001 82 159 0.0 3.0 0.00 0.00 0.00 81 1013.0
20220809054501 83 163 0.0 3.0 0.00 0.00 0.00 81 1012.9
20220809053100 83 163 1.0 4.0 0.00 0.00 0.00 80 1012.9
20220809051600 83 153 2.0 6.0 0.00 0.00 0.00 80 1012.7
20220809050059 83 183 2.0 6.0 0.00 0.00 0.00 80 1012.6
20220809044609 83 161 2.0 6.0 0.00 0.00 0.00 80 1012.3
20220809043057 83 168 2.0 6.0 0.00 0.00 0.00 81 1012.2
20220809041558 83 175 3.0 7.0 0.00 0.00 0.00 81 1012.1
20220809040057 83 151 1.0 3.0 0.00 0.00 0.00 81 1012.0
20220809034556 84 116 3.0 6.0 0.00 0.00 0.00 80 1011.8
20220809033056 84 198 2.0 7.0 0.00 0.00 0.00 80 1011.3
20220809031555 84 171 2.0 4.0 0.00 0.00 0.00 79 1011.3
20220809030059 84 172 3.0 5.0 0.00 0.00 0.00 79 1011.1
20220809024554 84 159 2.0 5.0 0.00 0.00 0.00 78 1011.0
20220809023053 84 144 1.0 4.0 0.00 0.00 0.00 77 1010.8
20220809021553 84 162 2.0 5.0 0.00 0.00 0.00 77 1010.7
20220809020052 84 123 1.0 4.0 0.00 0.00 0.00 78 1010.4
20220809014552 85 114 1.0 5.0 0.00 0.00 0.00 77 1010.0
20220809013051 85 189 2.0 5.0 0.00 0.00 0.00 76 1009.8
20220809011551 85 169 2.0 6.0 0.00 0.00 0.00 75 1009.7